Change the Weather History Date:

Saturday, December 21, 2013

  Actual Average Record
Temperature  
Mean Temperature 25 °F 21 °F  
Max Temperature 27 °F 28 °F 58 °F (1877)
Min Temperature 23 °F 14 °F -22 °F (1872)
Degree Days  
Heating Degree Days 40 44  
Month to date heating degree days 951 853  
Since 1 July heating degree days 2470 2432  
Cooling Degree Days 0 0  
Month to date cooling degree days 0 0  
Year to date cooling degree days 709 568  
Moisture  
Dew Point 23 °F    
Average Humidity 90    
Maximum Humidity 96    
Minimum Humidity 84    
Precipitation  
Precipitation T in 0.05 in 0.85 in (1887)
Month to date precipitation 0.82 1.29  
Year to date precipitation 44.58 34.03  
Snow  
Snow T in 0.50 in 10.00 in (1887)
Month to date snowfall 10.1 9.3  
Since 1 July snowfall 13.6 13.4  
Snow Depth 3.00 in    
Sea Level Pressure  
Sea Level Pressure 29.85 in    
Wind  
Wind Speed 10 mph (NNE)    
Max Wind Speed 23 mph    
Max Gust Speed 28 mph    
Visibility 4 miles    
Events Snow    
T = Trace of Precipitation, MM = Missing Value Source: NWS Daily Summary

Daily Weather History Graph

Daily Weather History Graph

Search for Another Location

Airport or City:

Trip Planner

Search our weather history database for the weather conditions in past years. The results will help you decide how hot, cold, wet, or windy it might be!

Date:

Astronomy

Dec. 21, 2013 Rise Set
Actual Time 7:26 AM CST 4:25 PM CST
Civil Twilight 6:53 AM CST 4:57 PM CST
Nautical Twilight 6:17 AM CST 5:33 PM CST
Astronomical Twilight 5:42 AM CST 6:08 PM CST
Moon 8:47 PM CST (12/21) 9:46 AM CST (12/21)
Length of Visible Light 10h 04m
Length of Day
8h 59m
Waning Gibbous, 84% of the Moon is Illuminated
Dec 21
Waning Gibbous
Dec 25
Last Quarter
Jan 1
New
Jan 7
First Quarter
Jan 15
Full

Hourly Weather History & Observations

Time (CST) Temp. Windchill Dew Point Humidity Pressure Visibility Wind Dir Wind Speed Gust Speed Precip Events Conditions
12:53 AM 23.0 °F 17.0 °F 21.0 °F 92% 29.82 in 2.5 mi NNE 4.6 mph - N/A   Overcast
1:53 AM 23.0 °F 17.0 °F 21.9 °F 96% 29.85 in 1.8 mi North 4.6 mph - N/A   Overcast
2:18 AM 23.0 °F 18.4 °F 21.9 °F 96% 29.83 in 3.0 mi North 3.5 mph - N/A   Overcast
2:44 AM 23.0 °F 18.4 °F 21.9 °F 96% 29.86 in 2.0 mi WNW 3.5 mph - N/A   Overcast
2:53 AM 23.0 °F 18.4 °F 21.9 °F 96% 29.89 in 1.2 mi NNW 3.5 mph - N/A   Overcast
3:53 AM 23.0 °F 15.8 °F 21.0 °F 92% 29.87 in 1.2 mi North 5.8 mph - N/A   Overcast
4:12 AM 23.0 °F 17.0 °F 21.0 °F 92% 29.81 in 2.5 mi North 4.6 mph - N/A   Overcast
4:20 AM 23.0 °F 17.0 °F 21.0 °F 92% 29.81 in 5.0 mi North 4.6 mph - N/A   Overcast
4:53 AM 23.0 °F 15.8 °F 21.0 °F 92% 29.84 in 5.0 mi North 5.8 mph - N/A   Overcast
5:53 AM 23.0 °F 18.4 °F 21.0 °F 92% 29.88 in 8.0 mi North 3.5 mph - N/A   Overcast
6:03 AM 23.0 °F 18.4 °F 21.0 °F 92% 29.84 in 8.0 mi North 3.5 mph - N/A   Overcast
6:53 AM 23.0 °F 13.9 °F 21.0 °F 92% 29.88 in 7.0 mi North 8.1 mph - N/A   Overcast
7:42 AM 23.0 °F 15.8 °F 21.0 °F 92% 29.85 in 2.5 mi North 5.8 mph - N/A   Overcast
7:44 AM 23.0 °F 17.0 °F 21.0 °F 92% 29.85 in 2.0 mi North 4.6 mph - 0.00 in   Light Freezing Drizzle
7:53 AM 23.0 °F 15.8 °F 21.0 °F 92% 29.88 in 2.0 mi NE 5.8 mph - 0.00 in   Overcast
8:53 AM 23.0 °F 14.7 °F 21.0 °F 92% 29.88 in 2.0 mi NNE 6.9 mph - N/A   Overcast
9:01 AM 23.0 °F 13.9 °F 21.9 °F 96% 29.84 in 5.0 mi NNE 8.1 mph - N/A   Overcast
9:53 AM 24.1 °F 16.0 °F 21.9 °F 91% 29.91 in 6.0 mi NNE 6.9 mph - N/A   Overcast
10:53 AM 24.1 °F 14.4 °F 23.0 °F 96% 29.91 in 5.0 mi North 9.2 mph - N/A   Overcast
11:24 AM 25.0 °F 15.5 °F 23.0 °F 92% 29.85 in 3.0 mi North 9.2 mph - N/A   Overcast
11:53 AM 25.0 °F 16.3 °F 23.0 °F 92% 29.88 in 3.0 mi NNE 8.1 mph - N/A   Overcast
12:22 PM 25.0 °F 16.3 °F 23.0 °F 92% 29.85 in 3.0 mi North 8.1 mph - N/A   Overcast
12:53 PM 26.1 °F 18.4 °F 23.0 °F 88% 29.90 in 3.0 mi North 6.9 mph - N/A   Overcast
1:53 PM 26.1 °F 16.2 °F 24.1 °F 92% 29.88 in 3.0 mi NNE 10.4 mph - 0.00 in Snow Light Snow
2:20 PM 26.1 °F 16.2 °F 24.1 °F 92% 29.83 in 2.0 mi North 10.4 mph - 0.00 in Snow Light Snow
2:53 PM 26.1 °F 16.2 °F 24.1 °F 92% 29.86 in 2.0 mi NNE 10.4 mph - 0.00 in   Overcast
3:33 PM 26.1 °F 15.6 °F 24.1 °F 92% 29.85 in 2.0 mi NNE 11.5 mph - N/A   Overcast
3:45 PM 27.0 °F 18.0 °F 24.1 °F 89% 29.85 in 2.0 mi NNE 9.2 mph - 0.00 in   Light Freezing Drizzle
3:53 PM 27.0 °F 16.1 °F 24.1 °F 89% 29.88 in 2.0 mi NNE 12.7 mph - 0.00 in   Light Freezing Drizzle
4:53 PM 27.0 °F 16.1 °F 24.1 °F 89% 29.89 in 2.0 mi NNE 12.7 mph - 0.00 in   Light Freezing Drizzle
5:53 PM 27.0 °F 16.1 °F 24.1 °F 89% 29.87 in 2.0 mi NNE 12.7 mph - 0.00 in   Light Freezing Drizzle
6:36 PM 27.0 °F 15.6 °F 24.1 °F 89% 29.83 in 6.0 mi NE 13.8 mph - 0.00 in   Overcast
6:53 PM 27.0 °F 17.3 °F 24.1 °F 89% 29.88 in 6.0 mi NNE 10.4 mph - 0.00 in   Overcast
7:30 PM 27.0 °F 15.2 °F 24.1 °F 89% 29.83 in 6.0 mi NNE 15.0 mph - 0.00 in   Light Freezing Drizzle
7:49 PM 26.6 °F 13.8 °F 24.8 °F 93% 29.82 in 9.0 mi NNE 17.3 mph - 0.00 in   Overcast
7:53 PM 27.0 °F 14.3 °F 24.1 °F 89% 29.86 in 10.0 mi NNE 17.3 mph - 0.00 in   Overcast
8:53 PM 27.0 °F 14.7 °F 24.1 °F 89% 29.83 in 10.0 mi NNE 16.1 mph - N/A   Overcast
9:53 PM 26.1 °F 12.3 °F 24.1 °F 92% 29.77 in 8.0 mi NE 19.6 mph 26.5 mph N/A   Overcast
10:53 PM 27.0 °F 13.9 °F 24.1 °F 89% 29.76 in 10.0 mi NNE 18.4 mph - N/A   Overcast
11:53 PM 27.0 °F 14.3 °F 24.1 °F 89% 29.80 in 10.0 mi NNE 17.3 mph - N/A   Overcast